Location: Clarks Summit,Pa.
(41.5000°N, 75.6000°W)
Time: 20:23:30
(UTC-05:00)

ISS - Visible Passes

Search period start: 20 November 2018 00:00
Search period end: 30 November 2018 00:00
Orbit: 401 x 409 km, 51.6° (Epoch: 21 November)

Date Brightness Start Highest point End Pass type
(mag) Time Alt. Az. Time Alt. Az. Time Alt. Az.
22 Nov -1.4 18:50:34 10° SW 18:51:35 18° SSW 18:51:35 18° SSW visible
23 Nov -2.5 17:59:00 10° SSW 18:01:44 25° SE 18:01:56 25° SE visible
24 Nov -1.6 17:08:07 10° SSE 17:09:48 13° SE 17:11:31 10° E visible
24 Nov -2.5 18:42:40 10° WSW 18:44:53 39° WSW 18:44:53 39° WSW visible
25 Nov -3.8 17:50:34 10° SW 17:53:48 63° SE 17:55:04 32° ENE visible
26 Nov -2.4 18:35:12 10° W 18:37:50 32° NW 18:37:50 32° NW visible
27 Nov -3.4 17:42:45 10° WSW 17:45:57 55° NNW 17:47:51 22° NE visible
28 Nov -1.8 18:27:59 10° WNW 18:30:29 21° NNW 18:30:29 21° NNW visible
29 Nov -2.4 17:35:17 10° W 17:38:11 29° NNW 17:40:23 15° NNE visible
